Weather History for Easton, MD

Change the Weather History Date:

Friday, July 5, 2013

  Actual Average Record
Temperature  
Mean Temperature 81 °F -  
Max Temperature 89 °F 87 °F 98 °F (2012)
Min Temperature 73 °F 65 °F 53 °F (1971)
Cooling Degree Days 16    
Growing Degree Days 31 (Base 50)    
Moisture  
Dew Point 75 °F    
Average Humidity 87    
Maximum Humidity 100    
Minimum Humidity 62    
Precipitation  
Precipitation 0.00 in - - ()
Sea Level Pressure  
Sea Level Pressure 30.26 in    
Wind  
Wind Speed 6 mph (SW)    
Max Wind Speed 15 mph    
Max Gust Speed 23 mph    
Visibility 10 miles    
Events      
Averages and records for this station are not official NWS values.
T = Trace of Precipitation, MM = Missing Value Source: NWS Daily Summary

Daily Weather History Graph

Daily Weather History Graph

Search for Another Location

Airport:

Trip Planner

Search our weather history database for the weather conditions in past years. The results will help you decide how hot, cold, wet, or windy it might be!

Date:

Astronomy

Jul. 05, 2013 Rise Set
Actual Time 5:45 AM EDT 8:32 PM EDT
Civil Twilight 5:13 AM EDT 9:04 PM EDT
Nautical Twilight 4:33 AM EDT 9:43 PM EDT
Astronomical Twilight 3:48 AM EDT 10:28 PM EDT
Moon 3:42 AM EDT (7/5) 6:26 PM EDT (7/5)
Length of Visible Light 15h 50m
Length of Day
14h 47m
Waning Crescent, 6% of the Moon is Illuminated
Jul 5
Waning Crescent
Jul 8
New
Jul 15
First Quarter
Jul 22
Full
Jul 29
Last Quarter

Hourly Weather History & Observations

Time (EDT) Temp. Heat Index Dew Point Humidity Pressure Visibility Wind Dir Wind Speed Gust Speed Precip Events Conditions
12:01 AM 77.2 °F - 74.8 °F 92% 30.28 in 10.0 mi SSW 8.1 mph - N/A   Clear
12:21 AM 77.0 °F - 75.2 °F 94% 30.27 in 10.0 mi South 6.9 mph - N/A   Clear
12:41 AM 76.3 °F - 75.4 °F 97% 30.28 in 10.0 mi South 4.6 mph - N/A   Clear
1:01 AM 76.1 °F - 76.1 °F 100% 30.28 in 10.0 mi South 4.6 mph - N/A   Clear
1:21 AM 76.1 °F - 76.1 °F 100% 30.27 in 10.0 mi South 4.6 mph - N/A   Clear
1:41 AM 75.4 °F - 75.4 °F 100% 30.27 in 10.0 mi Calm Calm - N/A   Clear
2:01 AM 74.8 °F - 74.8 °F 100% 30.27 in 10.0 mi South 3.5 mph - N/A   Clear
2:21 AM 75.4 °F - 75.4 °F 100% 30.27 in 10.0 mi SSW 4.6 mph - N/A   Clear
2:41 AM 76.1 °F - 76.1 °F 100% 30.27 in 10.0 mi SSW 5.8 mph - N/A   Clear
3:22 AM 76.5 °F - 76.5 °F 100% 30.27 in 10.0 mi SW 6.9 mph - N/A   Clear
3:42 AM 76.1 °F - 76.1 °F 100% 30.27 in 10.0 mi SW 6.9 mph - N/A   Clear
4:02 AM 76.3 °F - 76.3 °F 100% 30.26 in 10.0 mi SW 6.9 mph - N/A   Clear
5:02 AM 75.2 °F - 73.9 °F 96% 30.27 in 10.0 mi SW 3.5 mph - N/A   Clear
5:22 AM 75.2 °F - 73.8 °F 95% 30.26 in 10.0 mi SW 4.6 mph - N/A   Clear
5:42 AM 73.6 °F - 73.6 °F 100% 30.27 in 10.0 mi SSW 4.6 mph - N/A   Clear
5:53 AM 73.4 °F - 73.4 °F 100% 30.27 in 10.0 mi SSW 5.8 mph - N/A   Clear
6:02 AM 73.8 °F - 73.8 °F 100% 30.27 in 10.0 mi SSW 3.5 mph - N/A   Clear
6:22 AM 76.1 °F - 74.1 °F 94% 30.28 in 10.0 mi Calm Calm - N/A   Clear
6:42 AM 77.2 °F - 74.3 °F 91% 30.28 in 10.0 mi SSW 3.5 mph - N/A   Clear
6:53 AM 77.0 °F - 75.2 °F 94% 30.28 in 10.0 mi SSW 5.8 mph - N/A   Clear
7:02 AM 78.4 °F - 74.7 °F 88% 30.28 in 10.0 mi SW 3.5 mph - N/A   Clear
7:22 AM 79.2 °F - 75.2 °F 88% 30.28 in 10.0 mi WSW 5.8 mph - N/A   Clear
7:42 AM 80.1 °F 85.2 °F 75.6 °F 86% 30.28 in 10.0 mi West 8.1 mph - N/A   Clear
7:43 AM 80.1 °F 85.2 °F 75.6 °F 86% 30.28 in 10.0 mi West 6.9 mph - N/A   Clear
7:53 AM 80.6 °F 86.2 °F 75.2 °F 84% 30.29 in 10.0 mi SW 6.9 mph - N/A   Partly Cloudy
8:50 AM 80.6 °F 86.2 °F 75.2 °F 84% 30.29 in 10.0 mi SW 6.9 mph - N/A   Scattered Clouds
9:45 AM 82.4 °F 89.5 °F 75.2 °F 79% 30.28 in 10.0 mi SW 9.2 mph - N/A   Scattered Clouds
10:50 AM 84.2 °F 92.3 °F 75.2 °F 74% 30.29 in 10.0 mi WSW 10.4 mph 16.1 mph N/A   Scattered Clouds
11:47 AM 86.0 °F 95.1 °F 75.2 °F 70% 30.28 in 10.0 mi SW 13.8 mph 23.0 mph N/A   Scattered Clouds
12:50 PM 86.0 °F 95.1 °F 75.2 °F 70% 30.28 in 10.0 mi SW 15.0 mph - N/A   Scattered Clouds
1:45 PM 87.8 °F 97.6 °F 75.2 °F 66% 30.26 in 10.0 mi WSW 11.5 mph 20.7 mph N/A   Scattered Clouds
2:51 PM 89.6 °F 99.8 °F 75.2 °F 62% 30.25 in 10.0 mi SW 13.8 mph - N/A   Scattered Clouds
3:50 PM 89.6 °F 99.8 °F 75.2 °F 62% 30.23 in 10.0 mi SW 12.7 mph - N/A   Scattered Clouds
4:50 PM 87.8 °F 95.6 °F 73.4 °F 62% 30.21 in 10.0 mi SW 13.8 mph - N/A   Scattered Clouds
5:50 PM 87.8 °F 95.6 °F 73.4 °F 62% 30.19 in 10.0 mi WSW 10.4 mph - N/A   Scattered Clouds
6:50 PM 87.8 °F 95.6 °F 73.4 °F 62% 30.19 in 10.0 mi SW 8.1 mph - N/A   Scattered Clouds
7:50 PM 84.2 °F 90.9 °F 73.4 °F 70% 30.19 in 10.0 mi SSW 8.1 mph - N/A   Scattered Clouds
8:45 PM 82.4 °F 88.2 °F 73.4 °F 74% 30.20 in 10.0 mi SSW 3.5 mph - N/A   Scattered Clouds
11:04 PM 79.2 °F - 76.1 °F 90% 30.22 in 10.0 mi SSW 5.8 mph - N/A   Clear
11:24 PM 78.8 °F - 76.3 °F 92% 30.22 in 10.0 mi SSW 5.8 mph - N/A   Clear
11:44 PM 78.6 °F - 76.6 °F 94% 30.22 in 10.0 mi SW 5.8 mph - N/A   Clear